{"data":{"norad_id":41175,"epoch":"2026-05-24T05:00:59.089536Z","epoch_age_seconds":143304,"freshness":"FRESH","line1":"1 41175U 15079B   26144.20901724  .00000017  00000+0  00000+0 0  9998","line2":"2 41175  55.8123 101.9158 0004926 337.4451  22.4937  1.70473757 64780","mean_motion":1.70473757,"eccentricity":0.0004926,"inclination_deg":55.8123,"raan_deg":101.9158,"arg_perigee_deg":337.4451,"mean_anomaly_deg":22.4937,"bstar":0,"rev_number":6478,"period_min":844.70479523719,"perigee_km":23207.630055015,"apogee_km":23236.792318049,"semimajor_km":29600.348186532,"source":"CELESTRAK","updated_at":"2026-05-25T13:38:24.055677Z"}}